North Padre Island, TX

3:04 PM CDT on April 24, 2017 (GMT -0500)
North Padre Island

Weather History for KOPM - August, 2013

Change the Weather History Date:

Monday, August 19, 2013

  Actual Average (KHRL) Record (KHRL)
Temperature  
Mean Temperature 83 °F -  
Max Temperature 84 °F 94 °F 106 °F (1915)
Min Temperature 82 °F 73 °F 67 °F (1931)
Cooling Degree Days 18    
Growing Degree Days 33 (Base 50)    
Moisture  
Dew Point 74 °F    
Average Humidity 73    
Maximum Humidity 79    
Minimum Humidity 66    
Precipitation  
Precipitation 0.00 in - - ()
Sea Level Pressure  
Sea Level Pressure 29.95 in    
Wind  
Wind Speed 11 mph (NE)    
Max Wind Speed 16 mph    
Max Gust Speed 14 mph    
Visibility 10 miles    
Events      
Averages and records for this station are not official NWS values.
T = Trace of Precipitation, MM = Missing Value Source: NWS Daily Summary

Daily Weather History Graph

Daily Weather History Graph

Search for Another Location

Airport or City:

Trip Planner

Search our weather history database for the weather conditions in past years. The results will help you decide how hot, cold, wet, or windy it might be!

Date:

Astronomy

Aug. 19, 2013 Rise Set
Actual Time 7:01 AM CDT 8:00 PM CDT
Civil Twilight 6:37 AM CDT 8:24 PM CDT
Nautical Twilight 6:08 AM CDT 8:53 PM CDT
Astronomical Twilight 5:39 AM CDT 9:22 PM CDT
Moon 6:52 PM CDT (8/19) 5:25 AM CDT (8/19)
Length of Visible Light 13h 47m
Length of Day
12h 59m
Waxing Gibbous, 97% of the Moon is Illuminated
Aug 19
Waxing Gibbous
Aug 20
Full
Aug 28
Last Quarter
Sep 5
New
Sep 12
First Quarter

Hourly Weather History & Observations

Time (CDT) Temp. Heat Index Dew Point Humidity Pressure Visibility Wind Dir Wind Speed Gust Speed Precip Events Conditions
12:15 AM 84.2 °F 90.9 °F 73.4 °F 70% 29.97 in 10.0 mi NE 11.5 mph - N/A   Unknown
12:35 AM 82.4 °F 88.2 °F 73.4 °F 74% 29.97 in 10.0 mi NE 11.5 mph - N/A   Unknown
12:55 AM 82.4 °F 88.2 °F 73.4 °F 74% 29.96 in 10.0 mi NE 9.2 mph - N/A   Unknown
1:15 AM 82.4 °F 88.2 °F 73.4 °F 74% 29.96 in - NE 10.4 mph - N/A   Unknown
1:35 AM 82.4 °F 88.2 °F 73.4 °F 74% 29.96 in 10.0 mi ENE 9.2 mph - N/A   Unknown
1:55 AM 82.4 °F 88.2 °F 73.4 °F 74% 29.96 in 10.0 mi ENE 8.1 mph - N/A   Unknown
2:15 AM 82.4 °F 88.2 °F 73.4 °F 74% 29.96 in 10.0 mi ENE 9.2 mph - N/A   Unknown
2:35 AM 82.4 °F 88.2 °F 73.4 °F 74% 29.95 in 10.0 mi ENE 9.2 mph - N/A   Unknown
2:55 AM 82.4 °F 88.2 °F 73.4 °F 74% 29.96 in 10.0 mi ENE 9.2 mph - N/A   Unknown
3:15 AM 82.4 °F 88.2 °F 73.4 °F 74% 29.95 in 10.0 mi ENE 8.1 mph - N/A   Unknown
3:35 AM 82.4 °F 88.2 °F 73.4 °F 74% 29.95 in 10.0 mi NE 8.1 mph - N/A   Unknown
3:55 AM 82.4 °F 88.2 °F 73.4 °F 74% 29.94 in 10.0 mi NE 9.2 mph - N/A   Unknown
4:15 AM 82.4 °F 88.2 °F 73.4 °F 74% 29.94 in 10.0 mi NE 10.4 mph - N/A   Unknown
4:35 AM 82.4 °F 88.2 °F 73.4 °F 74% 29.94 in 10.0 mi NE 9.2 mph - N/A   Unknown
4:55 AM 82.4 °F 88.2 °F 73.4 °F 74% 29.93 in 10.0 mi NE 11.5 mph - N/A   Unknown
5:15 AM 82.4 °F 88.2 °F 73.4 °F 74% 29.94 in 10.0 mi NE 11.5 mph - N/A   Unknown
5:35 AM 82.4 °F 88.2 °F 73.4 °F 74% 29.94 in 10.0 mi NE 10.4 mph - N/A   Unknown
5:55 AM 82.4 °F 88.2 °F 73.4 °F 74% 29.94 in 10.0 mi NE 11.5 mph - N/A   Unknown
6:15 AM 82.4 °F 88.2 °F 73.4 °F 74% 29.94 in 10.0 mi NE 12.7 mph - N/A   Unknown
6:35 AM 82.4 °F 87.2 °F 71.6 °F 70% 29.94 in 10.0 mi NE 12.7 mph - N/A   Unknown
6:55 AM 82.4 °F 87.2 °F 71.6 °F 70% 29.95 in 10.0 mi NE 13.8 mph - N/A   Unknown
7:15 AM 82.4 °F 88.2 °F 73.4 °F 74% 29.96 in 10.0 mi NE 13.8 mph - N/A   Unknown
7:35 AM 82.4 °F 87.2 °F 71.6 °F 70% 29.96 in 10.0 mi NE 13.8 mph - N/A   Unknown
7:55 AM 82.4 °F 87.2 °F 71.6 °F 70% 29.97 in 10.0 mi NE 13.8 mph - N/A   Unknown
8:15 AM 82.4 °F 88.2 °F 73.4 °F 74% 29.97 in 10.0 mi NE 13.8 mph - N/A   Unknown
8:35 AM 82.4 °F 88.2 °F 73.4 °F 74% 29.98 in 10.0 mi NNE 10.4 mph - N/A   Unknown
8:55 AM 82.4 °F 88.2 °F 73.4 °F 74% 29.98 in 10.0 mi NNE 11.5 mph - N/A   Unknown
9:15 AM 84.2 °F 90.9 °F 73.4 °F 70% 29.98 in 10.0 mi NE 13.8 mph - N/A   Unknown
9:35 AM 84.2 °F 89.6 °F 71.6 °F 66% 29.99 in 10.0 mi NE 12.7 mph - N/A   Unknown
9:55 AM 84.2 °F 89.6 °F 71.6 °F 66% 30.00 in 10.0 mi NE 11.5 mph - N/A   Unknown
10:15 AM 84.2 °F 89.6 °F 71.6 °F 66% 30.00 in 10.0 mi NE 16.1 mph - N/A   Unknown
10:35 AM 84.2 °F 90.9 °F 73.4 °F 70% 30.01 in 10.0 mi NE 13.8 mph - N/A   Unknown
10:55 AM 84.2 °F 90.9 °F 73.4 °F 70% 30.01 in 10.0 mi NE 11.5 mph - N/A   Unknown
11:15 AM 84.2 °F 90.9 °F 73.4 °F 70% 30.01 in 10.0 mi NE 12.7 mph - N/A   Unknown
11:35 AM 84.2 °F 90.9 °F 73.4 °F 70% 30.01 in 10.0 mi NNE 11.5 mph - N/A   Unknown
11:55 AM 84.2 °F 90.9 °F 73.4 °F 70% 30.00 in 10.0 mi NNE 10.4 mph - N/A   Unknown
12:15 PM 84.2 °F 90.9 °F 73.4 °F 70% 30.00 in 10.0 mi NE 12.7 mph - N/A   Unknown
12:35 PM 84.2 °F 90.9 °F 73.4 °F 70% 30.00 in 10.0 mi NE 12.7 mph - N/A   Unknown
12:55 PM 84.2 °F 90.9 °F 73.4 °F 70% 29.99 in 10.0 mi NNE 5.8 mph 13.8 mph N/A   Unknown
1:15 PM 84.2 °F 90.9 °F 73.4 °F 70% 29.99 in 10.0 mi NNE 6.9 mph - N/A   Unknown
1:35 PM 84.2 °F 90.9 °F 73.4 °F 70% 29.98 in 10.0 mi NNE 6.9 mph - N/A   Unknown
1:55 PM 84.2 °F 92.3 °F 75.2 °F 74% 29.97 in 10.0 mi NNE 5.8 mph - N/A   Unknown
2:15 PM 84.2 °F 90.9 °F 73.4 °F 70% 29.97 in 10.0 mi NNE 5.8 mph - N/A   Unknown
2:35 PM 84.2 °F 90.9 °F 73.4 °F 70% 29.96 in 10.0 mi North 5.8 mph - N/A   Unknown
2:55 PM 84.2 °F 92.3 °F 75.2 °F 74% 29.95 in 10.0 mi NNE 5.8 mph - N/A   Unknown
3:15 PM 84.2 °F 92.3 °F 75.2 °F 74% 29.94 in 10.0 mi NNE 5.8 mph - N/A   Unknown
3:35 PM 84.2 °F 90.9 °F 73.4 °F 70% 29.94 in 10.0 mi NNE 5.8 mph 12.7 mph N/A   Unknown
3:55 PM 84.2 °F 90.9 °F 73.4 °F 70% 29.94 in 10.0 mi NNE 5.8 mph 11.5 mph N/A   Unknown
4:15 PM 84.2 °F 90.9 °F 73.4 °F 70% 29.93 in 10.0 mi NNE 8.1 mph - N/A   Unknown
4:35 PM 84.2 °F 90.9 °F 73.4 °F 70% 29.93 in 10.0 mi NNE 9.2 mph - N/A   Unknown
4:55 PM 84.2 °F 90.9 °F 73.4 °F 70% 29.93 in - NE 11.5 mph - N/A   Unknown
5:15 PM 84.2 °F 92.3 °F 75.2 °F 74% 29.92 in 10.0 mi NNE 10.4 mph - N/A   Unknown
5:35 PM 84.2 °F 92.3 °F 75.2 °F 74% 29.92 in 10.0 mi NE 13.8 mph - N/A   Unknown
5:55 PM 84.2 °F 90.9 °F 73.4 °F 70% 29.92 in 10.0 mi NE 13.8 mph - N/A   Unknown
6:15 PM 84.2 °F 90.9 °F 73.4 °F 70% 29.91 in 10.0 mi NE 13.8 mph - N/A   Unknown
6:35 PM 84.2 °F 90.9 °F 73.4 °F 70% 29.91 in 10.0 mi NE 12.7 mph - N/A   Unknown
6:55 PM 84.2 °F 90.9 °F 73.4 °F 70% 29.91 in 10.0 mi NE 13.8 mph - N/A   Unknown
7:15 PM 82.4 °F 88.2 °F 73.4 °F 74% 29.91 in 10.0 mi NE 13.8 mph - N/A   Unknown
7:35 PM 82.4 °F 88.2 °F 73.4 °F 74% 29.91 in 10.0 mi NE 16.1 mph - N/A   Unknown
7:55 PM 82.4 °F 88.2 °F 73.4 °F 74% 29.92 in 10.0 mi NE 13.8 mph - N/A   Unknown
8:15 PM 82.4 °F 88.2 °F 73.4 °F 74% 29.92 in 10.0 mi NE 15.0 mph - N/A   Unknown
8:35 PM 82.4 °F 89.5 °F 75.2 °F 79% 29.92 in 10.0 mi NE 15.0 mph - N/A   Unknown
8:55 PM 82.4 °F 89.5 °F 75.2 °F 79% 29.92 in 10.0 mi ENE 12.7 mph - N/A   Unknown
9:15 PM 82.4 °F 89.5 °F 75.2 °F 79% 29.93 in 10.0 mi ENE 12.7 mph - N/A   Unknown
9:35 PM 82.4 °F 89.5 °F 75.2 °F 79% 29.93 in 10.0 mi ENE 12.7 mph - N/A   Unknown
9:55 PM 82.4 °F 88.2 °F 73.4 °F 74% 29.93 in 10.0 mi East 11.5 mph - N/A   Unknown
10:15 PM 82.4 °F 89.5 °F 75.2 °F 79% 29.94 in 10.0 mi East 11.5 mph - N/A   Unknown
10:35 PM 82.4 °F 88.2 °F 73.4 °F 74% 29.94 in 10.0 mi East 10.4 mph - N/A   Unknown
10:55 PM 82.4 °F 89.5 °F 75.2 °F 79% 29.94 in 10.0 mi East 10.4 mph - N/A   Unknown
11:15 PM 82.4 °F 89.5 °F 75.2 °F 79% 29.94 in 10.0 mi East 11.5 mph - N/A   Unknown
11:35 PM 82.4 °F 89.5 °F 75.2 °F 79% 29.94 in 10.0 mi East 11.5 mph - N/A   Unknown
11:55 PM 82.4 °F 88.2 °F 73.4 °F 74% 29.95 in 10.0 mi ESE 15.0 mph - N/A   Unknown